Location: Most
(50.5133°N, 13.6207°E)
Time: 23:37:01
(UTC+02:00)

ISS - Pass Details

Date: 30 September 2021
Orbit: 418 x 423 km, 51.6° (Epoch: 15 October)

Event Time Altitude Azimuth Distance (km) Brightness Sun altitude
Rises 21:02:24 0° 286° (WNW) 2,368 1.5 -22.1°
Reaches altitude 10° 21:04:38 10° 276° (W) 1,502 0.1 -22.4°
Enters shadow 21:07:08 30° 232° (SW) 783 -2.2 -22.8°
